Time,TemperatureF,DewpointF,PressureIn,WindDirection,WindDirectionDegrees,WindSpeedMPH,WindSpeedGustMPH,Humidity,HourlyPrecipIn,Conditions,Clouds,dailyrainin,SoftwareType,DateUTC
2013-06-24 00:00:00,66.9,62.9,30.02,SSW,202,0.0,0.0,87,0.04,RA,,0.00,WeatherDisplay:10.37,2013-06-24 04:00:00,
2013-06-24 00:01:00,66.9,62.9,30.02,SSW,202,0.0,0.0,87,0.04,RA,,0.00,WeatherDisplay:10.37,2013-06-24 04:01:00,
2013-06-24 00:02:00,66.9,62.9,30.02,SSW,202,0.0,0.0,87,0.04,RA,,0.00,WeatherDisplay:10.37,2013-06-24 04:02:00,
2013-06-24 00:07:00,66.9,62.9,30.02,SSW,202,0.0,0.0,87,0.04,RA,,0.00,WeatherDisplay:10.37,2013-06-24 04:07:00,
2013-06-24 00:12:00,66.7,62.7,30.02,SSW,202,0.0,0.0,87,0.04,,,0.00,WeatherDisplay:10.37,2013-06-24 04:12:00,
2013-06-24 00:17:00,66.6,62.6,30.02,SSW,202,0.0,0.0,87,0.04,,,0.00,WeatherDisplay:10.37,2013-06-24 04:17:00,
2013-06-24 00:22:00,66.4,62.4,30.02,WNW,292,0.0,0.0,87,0.04,,,0.00,WeatherDisplay:10.37,2013-06-24 04:22:00,
2013-06-24 00:27:00,66.2,62.2,30.02,WNW,292,0.0,0.0,87,0.04,,,0.00,WeatherDisplay:10.37,2013-06-24 04:27:00,
2013-06-24 00:32:00,66.0,62.0,30.01,WNW,292,0.0,0.0,87,0.04,,,0.00,WeatherDisplay:10.37,2013-06-24 04:32:00,
2013-06-24 00:37:00,66.0,62.0,30.01,WNW,292,0.0,0.0,87,0.04,,,0.00,WeatherDisplay:10.37,2013-06-24 04:37:00,
2013-06-24 00:42:00,66.0,62.0,30.01,WNW,292,0.0,0.0,87,0.04,,,0.00,WeatherDisplay:10.37,2013-06-24 04:42:00,
2013-06-24 00:47:00,66.0,62.0,30.01,WNW,292,0.0,0.0,87,0.04,,,0.00,WeatherDisplay:10.37,2013-06-24 04:47:00,
2013-06-24 00:52:00,65.8,61.9,30.01,WNW,292,0.0,0.0,87,0.02,,,0.00,WeatherDisplay:10.37,2013-06-24 04:52:00,
2013-06-24 00:57:00,65.8,61.9,30.01,WNW,292,0.0,0.0,87,0.02,,,0.00,WeatherDisplay:10.37,2013-06-24 04:57:00,
2013-06-24 01:02:00,65.8,61.9,30.02,WNW,292,0.0,0.0,87,0.00,,,0.00,WeatherDisplay:10.37,2013-06-24 05:02:00,
2013-06-24 01:07:00,65.8,62.2,30.02,WNW,292,0.0,0.0,88,0.00,,,0.00,WeatherDisplay:10.37,2013-06-24 05:07:00,
2013-06-24 01:12:00,65.8,62.2,30.02,WNW,292,0.0,0.0,88,0.00,,,0.00,WeatherDisplay:10.37,2013-06-24 05:12:00,
2013-06-24 01:17:00,65.8,62.2,30.02,WNW,292,0.0,0.0,88,0.00,,,0.00,WeatherDisplay:10.37,2013-06-24 05:17:00,
2013-06-24 01:22:00,66.0,62.4,30.03,WNW,292,0.0,0.0,88,0.00,,,0.00,WeatherDisplay:10.37,2013-06-24 05:22:00,
2013-06-24 01:27:00,65.8,62.2,30.02,WNW,292,0.0,0.0,88,0.00,,,0.00,WeatherDisplay:10.37,2013-06-24 05:27:00,
2013-06-24 01:32:00,65.8,62.2,30.02,WNW,292,0.0,0.0,88,0.00,,,0.00,WeatherDisplay:10.37,2013-06-24 05:32:00,
2013-06-24 01:38:00,65.8,62.2,30.02,WNW,292,0.0,0.0,88,0.00,,,0.00,WeatherDisplay:10.37,2013-06-24 05:38:00,
2013-06-24 01:43:00,65.8,62.5,30.02,WNW,292,0.0,0.0,89,0.00,,,0.00,WeatherDisplay:10.37,2013-06-24 05:43:00,
2013-06-24 01:48:00,65.8,62.5,30.02,WNW,292,0.0,0.0,89,0.00,,,0.00,WeatherDisplay:10.37,2013-06-24 05:48:00,
2013-06-24 01:53:00,65.8,62.5,30.01,WNW,292,0.0,0.0,89,0.00,,,0.00,WeatherDisplay:10.37,2013-06-24 05:53:00,
2013-06-24 01:58:00,66.0,62.7,30.01,WNW,292,0.0,0.0,89,0.00,,,0.00,WeatherDisplay:10.37,2013-06-24 05:58:00,
2013-06-24 02:03:00,65.8,62.5,30.00,WNW,292,0.0,0.0,89,0.00,,,0.00,WeatherDisplay:10.37,2013-06-24 06:03:00,
2013-06-24 02:08:00,65.8,62.5,30.01,WNW,292,0.0,0.0,89,0.00,,,0.00,WeatherDisplay:10.37,2013-06-24 06:08:00,
2013-06-24 02:13:00,65.8,62.5,30.01,WNW,292,0.0,0.0,89,0.00,,,0.00,WeatherDisplay:10.37,2013-06-24 06:13:00,
2013-06-24 02:18:00,65.8,62.5,30.01,WNW,292,0.0,0.0,89,0.00,,,0.00,WeatherDisplay:10.37,2013-06-24 06:18:00,
2013-06-24 02:23:00,65.8,62.5,30.00,WNW,292,0.0,0.0,89,0.00,,,0.00,WeatherDisplay:10.37,2013-06-24 06:23:00,
2013-06-24 02:28:00,65.8,62.5,30.00,WNW,292,0.0,0.0,89,0.00,,,0.00,WeatherDisplay:10.37,2013-06-24 06:28:00,
2013-06-24 02:34:00,65.7,62.3,30.01,WNW,292,0.0,0.0,89,0.00,,,0.00,WeatherDisplay:10.37,2013-06-24 06:34:00,
2013-06-24 02:39:00,65.7,62.3,30.00,WNW,292,0.0,0.0,89,0.00,,,0.00,WeatherDisplay:10.37,2013-06-24 06:39:00,
2013-06-24 02:44:00,65.5,62.2,30.00,South,180,0.8,2.3,89,0.00,,,0.00,WeatherDisplay:10.37,2013-06-24 06:44:00,
2013-06-24 02:49:00,65.7,62.3,30.00,South,180,0.0,0.0,89,0.00,,,0.00,WeatherDisplay:10.37,2013-06-24 06:49:00,
2013-06-24 02:54:00,65.5,62.5,30.00,South,180,0.0,0.0,90,0.00,,,0.00,WeatherDisplay:10.37,2013-06-24 06:54:00,
2013-06-24 02:59:00,65.5,62.5,30.00,South,180,0.0,0.0,90,0.00,,,0.00,WeatherDisplay:10.37,2013-06-24 06:59:00,
2013-06-24 03:04:00,65.5,62.5,30.00,South,180,0.0,0.0,90,0.00,,,0.00,WeatherDisplay:10.37,2013-06-24 07:04:00,
2013-06-24 03:09:00,65.5,62.5,30.00,South,180,0.0,0.0,90,0.00,,,0.00,WeatherDisplay:10.37,2013-06-24 07:09:00,
2013-06-24 03:14:00,65.5,62.5,29.99,South,180,0.0,0.0,90,0.00,,,0.00,WeatherDisplay:10.37,2013-06-24 07:14:00,
2013-06-24 03:19:00,65.5,62.5,30.00,South,180,0.0,0.0,90,0.00,,,0.00,WeatherDisplay:10.37,2013-06-24 07:19:00,
2013-06-24 03:24:00,65.5,62.5,30.00,South,180,0.0,0.0,90,0.00,,,0.00,WeatherDisplay:10.37,2013-06-24 07:24:00,
2013-06-24 03:29:00,65.5,62.5,29.99,South,180,0.0,0.0,90,0.00,,,0.00,WeatherDisplay:10.37,2013-06-24 07:29:00,
2013-06-24 03:34:00,65.4,62.4,29.99,South,180,0.0,0.0,90,0.00,,,0.00,WeatherDisplay:10.37,2013-06-24 07:34:00,
2013-06-24 03:39:00,65.3,62.0,29.99,South,180,0.0,0.0,89,0.00,,,0.00,WeatherDisplay:10.37,2013-06-24 07:39:00,
2013-06-24 03:44:00,65.3,62.0,30.00,South,180,0.0,0.0,89,0.00,,,0.00,WeatherDisplay:10.37,2013-06-24 07:44:00,
2013-06-24 03:50:00,65.3,62.0,30.00,South,180,0.0,0.0,89,0.00,,,0.00,WeatherDisplay:10.37,2013-06-24 07:50:00,
2013-06-24 03:55:00,65.1,61.8,30.00,South,180,0.0,0.0,89,0.00,,,0.00,WeatherDisplay:10.37,2013-06-24 07:55:00,
2013-06-24 04:00:00,65.1,61.8,30.00,South,180,0.0,0.0,89,0.00,,,0.00,WeatherDisplay:10.37,2013-06-24 08:00:00,
2013-06-24 04:05:00,65.1,62.1,30.00,South,180,0.0,0.0,90,0.00,,,0.00,WeatherDisplay:10.37,2013-06-24 08:05:00,
2013-06-24 04:10:00,65.1,62.1,30.00,South,180,0.0,0.0,90,0.00,,,0.00,WeatherDisplay:10.37,2013-06-24 08:10:00,
2013-06-24 04:15:00,65.1,62.1,30.00,South,180,0.0,0.0,90,0.00,,,0.00,WeatherDisplay:10.37,2013-06-24 08:15:00,
2013-06-24 04:20:00,65.1,62.1,30.00,South,180,0.0,0.0,90,0.00,,,0.00,WeatherDisplay:10.37,2013-06-24 08:20:00,
2013-06-24 04:25:00,64.9,61.9,30.00,South,180,0.0,0.0,90,0.00,,,0.00,WeatherDisplay:10.37,2013-06-24 08:25:00,
2013-06-24 04:30:00,64.9,61.9,30.00,South,180,0.0,0.0,90,0.00,,,0.00,WeatherDisplay:10.37,2013-06-24 08:30:00,
2013-06-24 04:36:00,64.9,61.9,30.00,South,180,0.0,0.0,90,0.00,,,0.00,WeatherDisplay:10.37,2013-06-24 08:36:00,
2013-06-24 04:41:00,64.9,61.9,29.99,South,180,0.0,0.0,90,0.00,,,0.00,WeatherDisplay:10.37,2013-06-24 08:41:00,
2013-06-24 04:46:00,64.9,61.9,30.00,South,180,0.0,0.0,90,0.00,,,0.00,WeatherDisplay:10.37,2013-06-24 08:46:00,
2013-06-24 04:51:00,64.9,61.9,29.99,South,180,0.0,0.0,90,0.00,,,0.00,WeatherDisplay:10.37,2013-06-24 08:51:00,
2013-06-24 04:56:00,64.9,61.9,29.99,South,180,0.0,0.0,90,0.00,,,0.00,WeatherDisplay:10.37,2013-06-24 08:56:00,
2013-06-24 05:01:00,64.9,61.9,29.99,South,180,0.0,0.0,90,0.00,,,0.00,WeatherDisplay:10.37,2013-06-24 09:01:00,
2013-06-24 05:06:00,64.9,61.9,29.99,South,180,0.0,0.0,90,0.00,,,0.00,WeatherDisplay:10.37,2013-06-24 09:06:00,
2013-06-24 05:12:00,64.9,61.9,29.99,South,180,0.0,0.0,90,0.00,,,0.00,WeatherDisplay:10.37,2013-06-24 09:12:00,
2013-06-24 05:17:00,64.9,61.9,29.99,South,180,0.0,0.0,90,0.00,,,0.00,WeatherDisplay:10.37,2013-06-24 09:17:00,
2013-06-24 05:22:00,64.9,61.9,29.98,South,180,0.0,0.0,90,0.00,,,0.00,WeatherDisplay:10.37,2013-06-24 09:22:00,
2013-06-24 05:27:00,64.9,61.9,29.99,South,180,0.0,0.0,90,0.00,,,0.00,WeatherDisplay:10.37,2013-06-24 09:27:00,
2013-06-24 05:32:00,64.8,61.8,29.99,South,180,0.0,0.0,90,0.00,,,0.00,WeatherDisplay:10.37,2013-06-24 09:32:00,
2013-06-24 05:37:00,64.8,61.8,29.99,South,180,0.0,0.0,90,0.00,,,0.00,WeatherDisplay:10.37,2013-06-24 09:37:00,
2013-06-24 05:42:00,64.8,61.8,29.99,South,180,0.0,0.0,90,0.00,,,0.00,WeatherDisplay:10.37,2013-06-24 09:42:00,
2013-06-24 05:47:00,64.8,61.8,30.00,South,180,0.0,0.0,90,0.00,,,0.00,WeatherDisplay:10.37,2013-06-24 09:47:00,
2013-06-24 05:52:00,64.6,61.6,30.00,South,180,0.0,0.0,90,0.00,,,0.00,WeatherDisplay:10.37,2013-06-24 09:52:00,
2013-06-24 05:57:00,64.6,61.6,30.00,South,180,0.0,0.0,90,0.00,,,0.00,WeatherDisplay:10.37,2013-06-24 09:57:00,
2013-06-24 06:02:00,64.6,61.6,30.00,South,180,0.0,0.0,90,0.00,,,0.00,WeatherDisplay:10.37,2013-06-24 10:02:00,
2013-06-24 06:07:00,64.6,61.6,30.00,South,180,0.0,0.0,90,0.00,,,0.00,WeatherDisplay:10.37,2013-06-24 10:07:00,
2013-06-24 06:12:00,64.6,61.6,30.00,South,180,0.0,0.0,90,0.00,,,0.00,WeatherDisplay:10.37,2013-06-24 10:12:00,
2013-06-24 06:19:00,64.6,61.6,30.01,South,180,0.0,0.0,90,0.00,,,0.00,WeatherDisplay:10.37,2013-06-24 10:19:00,
2013-06-24 06:24:00,64.6,61.6,30.01,South,180,0.0,0.0,90,0.00,,,0.00,WeatherDisplay:10.37,2013-06-24 10:24:00,
2013-06-24 06:29:00,64.6,61.6,30.01,South,180,0.0,0.0,90,0.00,,,0.00,WeatherDisplay:10.37,2013-06-24 10:29:00,
2013-06-24 06:34:00,64.6,61.6,30.01,South,180,0.0,0.0,90,0.00,,,0.00,WeatherDisplay:10.37,2013-06-24 10:34:00,
2013-06-24 06:39:00,64.6,61.6,30.01,South,180,0.0,0.0,90,0.00,,,0.00,WeatherDisplay:10.37,2013-06-24 10:39:00,
2013-06-24 06:44:00,64.6,61.6,30.01,South,180,0.0,0.0,90,0.00,,,0.00,WeatherDisplay:10.37,2013-06-24 10:44:00,
2013-06-24 06:49:00,64.6,61.6,30.01,South,180,0.0,0.0,90,0.00,,,0.00,WeatherDisplay:10.37,2013-06-24 10:49:00,
2013-06-24 06:54:00,64.6,61.6,30.01,South,180,0.0,0.0,90,0.00,,,0.00,WeatherDisplay:10.37,2013-06-24 10:54:00,
2013-06-24 06:59:00,64.7,61.7,30.02,South,180,0.0,0.0,90,0.00,,,0.00,WeatherDisplay:10.37,2013-06-24 10:59:00,
2013-06-24 07:04:00,64.8,61.8,30.02,South,180,0.0,0.0,90,0.00,,,0.00,WeatherDisplay:10.37,2013-06-24 11:04:00,
2013-06-24 07:09:00,64.8,61.8,30.02,South,180,0.0,0.0,90,0.00,,,0.00,WeatherDisplay:10.37,2013-06-24 11:09:00,
2013-06-24 07:14:00,64.9,61.9,30.01,South,180,0.0,0.0,90,0.00,,,0.00,WeatherDisplay:10.37,2013-06-24 11:14:00,
2013-06-24 07:19:00,64.9,61.9,30.01,South,180,0.0,0.0,90,0.00,,,0.00,WeatherDisplay:10.37,2013-06-24 11:19:00,
2013-06-24 07:24:00,64.9,61.9,30.01,South,180,0.0,0.0,90,0.00,,,0.00,WeatherDisplay:10.37,2013-06-24 11:24:00,
2013-06-24 07:30:00,65.1,62.1,30.01,South,180,0.0,0.0,90,0.00,,,0.00,WeatherDisplay:10.37,2013-06-24 11:30:00,
2013-06-24 07:35:00,65.1,62.1,30.01,South,180,0.0,0.0,90,0.00,,,0.00,WeatherDisplay:10.37,2013-06-24 11:35:00,
2013-06-24 07:40:00,65.1,62.1,30.01,South,180,0.0,0.0,90,0.00,,,0.00,WeatherDisplay:10.37,2013-06-24 11:40:00,
2013-06-24 07:46:00,65.1,62.1,30.02,South,180,0.0,0.0,90,0.00,,,0.00,WeatherDisplay:10.37,2013-06-24 11:46:00,
2013-06-24 07:51:00,65.1,62.1,30.02,South,180,0.0,0.0,90,0.00,,,0.00,WeatherDisplay:10.37,2013-06-24 11:51:00,
2013-06-24 07:56:00,65.3,62.3,30.02,South,180,0.0,0.0,90,0.00,,,0.00,WeatherDisplay:10.37,2013-06-24 11:56:00,
2013-06-24 08:01:00,65.5,62.5,30.02,South,180,0.0,0.0,90,0.00,,,0.00,WeatherDisplay:10.37,2013-06-24 12:01:00,
2013-06-24 08:06:00,65.5,62.5,30.02,South,180,0.0,0.0,90,0.00,,,0.00,WeatherDisplay:10.37,2013-06-24 12:06:00,
2013-06-24 08:11:00,65.5,62.5,30.02,South,180,0.0,0.0,90,0.00,,,0.00,WeatherDisplay:10.37,2013-06-24 12:11:00,
2013-06-24 08:16:00,65.7,62.6,30.02,South,180,0.0,0.0,90,0.00,,,0.00,WeatherDisplay:10.37,2013-06-24 12:16:00,
2013-06-24 08:21:00,65.8,62.8,30.02,South,180,0.0,0.0,90,0.00,,,0.00,WeatherDisplay:10.37,2013-06-24 12:21:00,
2013-06-24 08:26:00,66.0,63.0,30.03,South,180,0.0,0.0,90,0.00,,,0.00,WeatherDisplay:10.37,2013-06-24 12:26:00,
2013-06-24 08:31:00,66.0,63.0,30.03,South,180,0.0,0.0,90,0.00,,,0.00,WeatherDisplay:10.37,2013-06-24 12:31:00,
2013-06-24 08:36:00,66.4,63.7,30.03,South,180,0.0,0.0,91,0.00,,,0.00,WeatherDisplay:10.37,2013-06-24 12:36:00,
2013-06-24 08:42:00,66.4,63.7,30.03,South,180,0.0,0.0,91,0.00,,,0.00,WeatherDisplay:10.37,2013-06-24 12:42:00,
2013-06-24 08:47:00,66.6,63.9,30.03,South,180,0.0,0.0,91,0.00,,,0.00,WeatherDisplay:10.37,2013-06-24 12:47:00,
2013-06-24 08:52:00,66.7,64.0,30.03,South,180,0.0,0.0,91,0.00,,,0.00,WeatherDisplay:10.37,2013-06-24 12:52:00,
2013-06-24 08:57:00,66.7,64.0,30.03,South,180,0.0,0.0,91,0.00,,,0.00,WeatherDisplay:10.37,2013-06-24 12:57:00,
2013-06-24 09:02:00,67.1,64.4,30.04,South,180,0.0,0.0,91,0.00,,,0.00,WeatherDisplay:10.37,2013-06-24 13:02:00,
2013-06-24 09:07:00,67.3,64.6,30.03,South,180,0.0,0.0,91,0.00,,,0.00,WeatherDisplay:10.37,2013-06-24 13:07:00,
2013-06-24 09:12:00,67.3,64.6,30.04,South,180,0.0,0.0,91,0.00,,,0.00,WeatherDisplay:10.37,2013-06-24 13:12:00,
2013-06-24 09:17:00,67.6,64.9,30.04,South,180,0.0,0.0,91,0.00,,,0.00,WeatherDisplay:10.37,2013-06-24 13:17:00,
2013-06-24 09:22:00,67.6,64.9,30.04,South,180,0.0,0.0,91,0.00,,,0.00,WeatherDisplay:10.37,2013-06-24 13:22:00,
2013-06-24 09:28:00,67.8,65.1,30.04,South,180,0.0,0.0,91,0.00,,,0.00,WeatherDisplay:10.37,2013-06-24 13:28:00,
2013-06-24 09:33:00,68.2,65.1,30.04,South,180,0.0,0.0,90,0.00,,,0.00,WeatherDisplay:10.37,2013-06-24 13:33:00,
2013-06-24 09:38:00,68.4,65.3,30.04,South,180,0.0,0.0,90,0.00,,,0.00,WeatherDisplay:10.37,2013-06-24 13:38:00,
2013-06-24 09:43:00,68.5,65.5,30.04,South,180,0.0,0.0,90,0.00,,,0.00,WeatherDisplay:10.37,2013-06-24 13:43:00,
2013-06-24 09:50:00,68.7,65.7,30.04,South,180,0.0,0.0,90,0.00,,,0.00,WeatherDisplay:10.37,2013-06-24 13:50:00,
2013-06-24 09:55:00,68.7,65.7,30.05,South,180,0.0,0.0,90,0.00,,,0.00,WeatherDisplay:10.37,2013-06-24 13:55:00,
2013-06-24 10:01:00,68.7,65.7,30.04,South,180,0.0,0.0,90,0.00,,,0.00,WeatherDisplay:10.37,2013-06-24 14:01:00,
2013-06-24 10:06:00,68.9,65.8,30.05,South,180,0.0,0.0,90,0.00,,,0.00,WeatherDisplay:10.37,2013-06-24 14:06:00,
2013-06-24 10:11:00,68.9,65.8,30.04,South,180,0.0,0.0,90,0.00,,,0.00,WeatherDisplay:10.37,2013-06-24 14:11:00,
2013-06-24 10:16:00,69.1,66.0,30.05,South,180,0.0,0.0,90,0.00,,,0.00,WeatherDisplay:10.37,2013-06-24 14:16:00,
2013-06-24 10:21:00,69.3,66.2,30.05,South,180,0.0,0.0,90,0.00,,,0.00,WeatherDisplay:10.37,2013-06-24 14:21:00,
2013-06-24 10:26:00,69.4,66.4,30.05,South,180,0.0,0.0,90,0.00,,,0.00,WeatherDisplay:10.37,2013-06-24 14:26:00,
2013-06-24 10:31:00,69.6,66.2,30.04,South,180,0.0,0.0,89,0.00,,,0.00,WeatherDisplay:10.37,2013-06-24 14:31:00,
2013-06-24 10:36:00,69.6,66.2,30.04,South,180,0.0,0.0,89,0.00,,,0.00,WeatherDisplay:10.37,2013-06-24 14:36:00,
2013-06-24 10:41:00,70.0,66.9,30.04,South,180,0.0,0.0,90,0.00,,,0.00,WeatherDisplay:10.37,2013-06-24 14:41:00,
2013-06-24 10:46:00,70.2,67.1,30.04,South,180,0.0,0.0,90,0.00,,,0.00,WeatherDisplay:10.37,2013-06-24 14:46:00,
2013-06-24 10:52:00,70.3,67.3,30.04,South,180,0.0,0.0,90,0.00,,,0.00,WeatherDisplay:10.37,2013-06-24 14:52:00,
2013-06-24 10:57:00,70.7,67.3,30.04,South,180,0.0,0.0,89,0.00,,,0.00,WeatherDisplay:10.37,2013-06-24 14:57:00,
2013-06-24 11:02:00,71.1,67.7,30.04,South,180,0.0,0.0,89,0.00,,,0.00,WeatherDisplay:10.37,2013-06-24 15:02:00,
2013-06-24 11:07:00,71.4,68.0,30.04,South,180,0.0,0.0,89,0.00,,,0.00,WeatherDisplay:10.37,2013-06-24 15:07:00,
2013-06-24 11:12:00,71.8,68.4,30.04,South,180,0.0,0.0,89,0.00,,,0.00,WeatherDisplay:10.37,2013-06-24 15:12:00,
2013-06-24 11:17:00,72.3,68.6,30.04,South,180,0.0,0.0,88,0.00,,,0.00,WeatherDisplay:10.37,2013-06-24 15:17:00,
2013-06-24 11:22:00,72.9,69.1,30.04,SSE,158,0.0,0.0,88,0.00,,,0.00,WeatherDisplay:10.37,2013-06-24 15:22:00,
2013-06-24 11:27:00,73.2,69.1,30.04,South,180,0.0,0.0,87,0.00,,,0.00,WeatherDisplay:10.37,2013-06-24 15:27:00,
2013-06-24 11:32:00,73.6,69.1,30.04,South,180,0.0,0.0,86,0.00,,,0.00,WeatherDisplay:10.37,2013-06-24 15:32:00,
2013-06-24 11:37:00,73.9,69.1,30.04,SSW,204,0.0,0.0,85,0.00,,,0.00,WeatherDisplay:10.37,2013-06-24 15:37:00,
2013-06-24 11:42:00,74.1,69.3,30.04,SSE,158,0.0,0.0,85,0.00,,,0.00,WeatherDisplay:10.37,2013-06-24 15:42:00,
2013-06-24 11:48:00,74.5,69.7,30.04,SSE,158,0.0,0.0,85,0.00,,,0.00,WeatherDisplay:10.37,2013-06-24 15:48:00,
2013-06-24 11:53:00,74.8,70.0,30.04,SSE,158,0.0,0.0,85,0.00,,,0.00,WeatherDisplay:10.37,2013-06-24 15:53:00,
2013-06-24 11:58:00,75.0,70.2,30.04,SSE,158,0.0,0.0,85,0.00,,,0.00,WeatherDisplay:10.37,2013-06-24 15:58:00,
2013-06-24 12:03:00,75.4,70.2,30.04,South,180,0.0,0.0,84,0.00,,,0.00,WeatherDisplay:10.37,2013-06-24 16:03:00,
2013-06-24 12:08:00,75.4,69.9,30.03,SSW,202,0.0,0.0,83,0.00,,,0.00,WeatherDisplay:10.37,2013-06-24 16:08:00,
2013-06-24 12:13:00,75.2,69.7,30.04,SSW,202,0.0,0.0,83,0.00,,,0.00,WeatherDisplay:10.37,2013-06-24 16:13:00,
2013-06-24 12:18:00,75.0,69.5,30.03,SSW,202,0.0,0.0,83,0.00,,,0.00,WeatherDisplay:10.37,2013-06-24 16:18:00,
2013-06-24 12:23:00,75.0,69.9,30.03,SSW,202,0.0,0.0,84,0.00,,,0.00,WeatherDisplay:10.37,2013-06-24 16:23:00,
2013-06-24 12:29:00,74.8,69.7,30.03,SSW,202,0.0,0.0,84,0.00,,,0.00,WeatherDisplay:10.37,2013-06-24 16:29:00,
2013-06-24 12:34:00,74.6,69.4,30.03,SSW,209,0.0,0.0,84,0.00,RA,,0.02,WeatherDisplay:10.37,2013-06-24 16:34:00,
2013-06-24 12:39:00,74.1,69.3,30.03,West,263,0.0,0.0,85,0.00,RA,,0.14,WeatherDisplay:10.37,2013-06-24 16:39:00,
2013-06-24 12:44:00,73.2,68.4,30.03,West,279,0.0,0.0,85,0.07,RA,,0.29,WeatherDisplay:10.37,2013-06-24 16:44:00,
2013-06-24 12:49:00,72.6,67.9,30.03,WSW,257,0.0,0.0,85,0.00,RA,,0.38,WeatherDisplay:10.37,2013-06-24 16:49:00,
2013-06-24 12:54:00,71.8,67.1,30.02,West,264,0.0,0.0,85,0.00,RA,,0.38,WeatherDisplay:10.37,2013-06-24 16:54:00,
2013-06-24 12:59:00,71.3,66.9,30.03,West,270,0.0,0.0,86,0.00,,,0.38,WeatherDisplay:10.37,2013-06-24 16:59:00,
2013-06-24 13:04:00,71.2,67.1,30.02,West,270,0.0,0.0,87,0.00,,,0.38,WeatherDisplay:10.37,2013-06-24 17:04:00,
2013-06-24 13:09:00,71.2,67.2,30.01,West,270,0.0,0.0,87,0.00,,,0.38,WeatherDisplay:10.37,2013-06-24 17:09:00,
2013-06-24 13:14:00,71.5,67.8,30.02,West,270,0.0,0.0,88,0.00,,,0.38,WeatherDisplay:10.37,2013-06-24 17:14:00,
2013-06-24 13:20:00,72.0,68.3,30.02,West,270,0.0,0.0,88,0.00,,,0.38,WeatherDisplay:10.37,2013-06-24 17:20:00,
2013-06-24 13:25:00,73.0,69.6,30.02,West,270,0.0,0.0,89,0.38,,,0.38,WeatherDisplay:10.37,2013-06-24 17:25:00,
2013-06-24 13:30:00,73.8,70.3,30.02,West,270,0.0,0.0,89,0.38,,,0.38,WeatherDisplay:10.37,2013-06-24 17:30:00,
2013-06-24 13:36:00,74.5,70.4,30.01,West,271,0.0,0.0,87,0.36,,,0.38,WeatherDisplay:10.37,2013-06-24 17:36:00,
2013-06-24 13:41:00,74.8,70.7,30.01,West,270,0.0,0.0,87,0.25,,,0.38,WeatherDisplay:10.37,2013-06-24 17:41:00,
2013-06-24 13:46:00,74.7,70.2,30.01,West,270,0.0,0.0,86,0.07,,,0.38,WeatherDisplay:10.37,2013-06-24 17:46:00,
2013-06-24 13:51:00,74.5,70.0,30.00,West,270,0.0,0.0,86,0.02,RA,,0.41,WeatherDisplay:10.37,2013-06-24 17:51:00,
2013-06-24 13:56:00,74.5,69.7,30.01,West,270,0.0,0.0,85,0.02,RA,,0.41,WeatherDisplay:10.37,2013-06-24 17:56:00,
2013-06-24 14:01:00,74.1,69.3,30.00,South,180,0.0,0.0,85,0.02,,,0.41,WeatherDisplay:10.37,2013-06-24 18:01:00,
2013-06-24 14:06:00,73.8,69.0,30.00,South,180,0.0,0.0,85,0.02,,,0.41,WeatherDisplay:10.37,2013-06-24 18:06:00,
2013-06-24 14:11:00,73.4,68.6,30.00,South,180,0.0,0.0,85,0.04,RA,,0.43,WeatherDisplay:10.37,2013-06-24 18:11:00,
2013-06-24 14:16:00,73.2,68.4,29.99,South,180,0.0,0.0,85,0.04,RA,,0.43,WeatherDisplay:10.37,2013-06-24 18:16:00,
2013-06-24 14:22:00,73.2,68.8,29.99,West,270,0.0,0.0,86,0.04,,,0.43,WeatherDisplay:10.37,2013-06-24 18:22:00,
2013-06-24 14:27:00,73.2,68.8,29.99,West,270,0.0,0.0,86,0.04,,,0.43,WeatherDisplay:10.37,2013-06-24 18:27:00,
2013-06-24 14:32:00,73.6,69.1,29.98,West,270,0.0,0.0,86,0.04,,,0.43,WeatherDisplay:10.37,2013-06-24 18:32:00,
2013-06-24 14:37:00,73.9,69.5,29.98,WSW,248,0.0,0.0,86,0.04,,,0.43,WeatherDisplay:10.37,2013-06-24 18:37:00,
2013-06-24 14:42:00,74.3,69.8,29.97,SSE,158,0.0,0.0,86,0.04,,,0.43,WeatherDisplay:10.37,2013-06-24 18:42:00,
2013-06-24 14:49:00,74.8,70.0,29.98,SSE,158,0.0,0.0,85,0.02,,,0.43,WeatherDisplay:10.37,2013-06-24 18:49:00,
2013-06-24 14:54:00,75.0,70.2,29.97,SE,135,0.0,0.0,85,0.02,,,0.43,WeatherDisplay:10.37,2013-06-24 18:54:00,
2013-06-24 14:59:00,75.7,70.6,29.97,SSE,158,0.0,0.0,84,0.02,,,0.43,WeatherDisplay:10.37,2013-06-24 18:59:00,
2013-06-24 15:04:00,76.3,70.4,29.97,SE,135,0.0,0.0,82,0.02,,,0.43,WeatherDisplay:10.37,2013-06-24 19:04:00,
2013-06-24 15:09:00,77.7,71.1,29.96,SSW,202,0.0,0.0,80,0.02,,,0.43,WeatherDisplay:10.37,2013-06-24 19:09:00,
2013-06-24 15:14:00,78.6,71.2,29.97,SSW,202,0.0,0.0,78,0.00,,,0.43,WeatherDisplay:10.37,2013-06-24 19:14:00,
2013-06-24 15:19:00,79.3,71.1,29.96,South,184,0.0,0.0,76,0.00,,,0.43,WeatherDisplay:10.37,2013-06-24 19:19:00,
2013-06-24 15:25:00,79.5,70.9,29.96,South,180,0.0,0.0,75,0.00,,,0.43,WeatherDisplay:10.37,2013-06-24 19:25:00,
2013-06-24 15:30:00,79.5,69.7,29.96,SSE,158,0.0,0.0,72,0.00,,,0.43,WeatherDisplay:10.37,2013-06-24 19:30:00,
2013-06-24 15:36:00,80.1,70.2,29.96,SSE,158,0.0,0.0,72,0.00,,,0.43,WeatherDisplay:10.37,2013-06-24 19:36:00,
2013-06-24 15:41:00,80.4,70.2,29.96,SSW,202,0.0,0.0,71,0.00,,,0.43,WeatherDisplay:10.37,2013-06-24 19:41:00,
2013-06-24 15:46:00,80.6,70.7,29.96,South,180,0.0,0.0,72,0.00,,,0.43,WeatherDisplay:10.37,2013-06-24 19:46:00,
2013-06-24 15:51:00,81.1,70.8,29.96,South,180,0.0,0.0,71,0.00,,,0.43,WeatherDisplay:10.37,2013-06-24 19:51:00,
2013-06-24 15:57:00,81.3,70.2,29.95,South,180,0.0,0.0,69,0.00,,,0.43,WeatherDisplay:10.37,2013-06-24 19:57:00,
2013-06-24 16:02:00,81.5,70.3,29.95,SSE,158,0.0,0.0,69,0.00,,,0.43,WeatherDisplay:10.37,2013-06-24 20:02:00,
2013-06-24 16:07:00,81.7,70.1,29.95,SW,225,0.0,0.0,68,0.00,,,0.43,WeatherDisplay:10.37,2013-06-24 20:07:00,
2013-06-24 16:12:00,82.0,70.4,29.96,South,180,0.0,0.0,68,0.00,,,0.43,WeatherDisplay:10.37,2013-06-24 20:12:00,
2013-06-24 16:17:00,82.0,70.9,29.95,South,180,0.0,0.0,69,0.00,,,0.43,WeatherDisplay:10.37,2013-06-24 20:17:00,
2013-06-24 16:22:00,82.2,70.6,29.95,SSW,202,0.0,0.0,68,0.00,,,0.43,WeatherDisplay:10.37,2013-06-24 20:22:00,
2013-06-24 16:27:00,82.2,70.2,29.95,South,180,0.0,0.0,67,0.00,,,0.43,WeatherDisplay:10.37,2013-06-24 20:27:00,
2013-06-24 16:32:00,82.2,70.2,29.95,SSE,158,0.0,0.0,67,0.00,,,0.43,WeatherDisplay:10.37,2013-06-24 20:32:00,
2013-06-24 16:37:00,82.0,70.0,29.95,South,180,0.0,0.0,67,0.00,,,0.43,WeatherDisplay:10.37,2013-06-24 20:37:00,
2013-06-24 16:42:00,81.7,69.7,29.95,SSW,202,0.0,0.0,67,0.00,,,0.43,WeatherDisplay:10.37,2013-06-24 20:42:00,
2013-06-24 16:48:00,81.3,70.2,29.95,SW,225,0.0,0.0,69,0.00,,,0.43,WeatherDisplay:10.37,2013-06-24 20:48:00,
2013-06-24 16:53:00,81.1,70.0,29.95,South,180,0.0,0.0,69,0.00,,,0.43,WeatherDisplay:10.37,2013-06-24 20:53:00,
2013-06-24 16:58:00,80.8,69.7,29.95,South,180,0.0,0.0,69,0.00,,,0.43,WeatherDisplay:10.37,2013-06-24 20:58:00,
2013-06-24 17:03:00,80.6,69.1,29.95,South,180,0.0,0.0,68,0.00,,,0.43,WeatherDisplay:10.37,2013-06-24 21:03:00,
2013-06-24 17:09:00,80.4,68.5,29.95,SSE,158,0.0,0.0,67,0.00,,,0.43,WeatherDisplay:10.37,2013-06-24 21:09:00,
2013-06-24 17:14:00,80.2,67.8,29.95,SSW,202,0.0,0.0,66,0.00,,,0.43,WeatherDisplay:10.37,2013-06-24 21:14:00,
2013-06-24 17:19:00,79.9,67.9,29.95,SSW,202,0.0,0.0,67,0.00,,,0.43,WeatherDisplay:10.37,2013-06-24 21:19:00,
2013-06-24 17:24:00,79.7,68.2,29.95,South,180,0.0,0.0,68,0.00,,,0.43,WeatherDisplay:10.37,2013-06-24 21:24:00,
2013-06-24 17:29:00,79.5,68.5,29.95,South,180,0.0,0.0,69,0.00,,,0.43,WeatherDisplay:10.37,2013-06-24 21:29:00,
2013-06-24 17:34:00,79.2,68.1,29.95,South,180,0.0,0.0,69,0.00,,,0.43,WeatherDisplay:10.37,2013-06-24 21:34:00,
2013-06-24 17:39:00,79.0,68.4,29.95,SW,225,0.0,0.0,70,0.00,,,0.43,WeatherDisplay:10.37,2013-06-24 21:39:00,
2013-06-24 17:44:00,78.6,68.0,29.94,South,180,0.0,0.0,70,0.00,,,0.43,WeatherDisplay:10.37,2013-06-24 21:44:00,
2013-06-24 17:49:00,78.6,68.4,29.93,SSE,158,0.0,0.0,71,0.00,,,0.43,WeatherDisplay:10.37,2013-06-24 21:49:00,
2013-06-24 17:54:00,78.4,68.3,29.94,SSW,198,0.0,0.0,71,0.00,,,0.43,WeatherDisplay:10.37,2013-06-24 21:54:00,
2013-06-24 17:59:00,78.4,67.8,29.94,SW,219,0.0,0.0,70,0.00,,,0.43,WeatherDisplay:10.37,2013-06-24 21:59:00,
2013-06-24 18:04:00,78.1,67.9,29.94,SSE,158,0.0,0.0,71,0.00,,,0.43,WeatherDisplay:10.37,2013-06-24 22:04:00,
2013-06-24 18:09:00,77.7,68.0,29.94,South,177,0.0,0.0,72,0.00,,,0.43,WeatherDisplay:10.37,2013-06-24 22:09:00,
2013-06-24 18:14:00,77.5,67.4,29.94,SSW,196,0.0,0.0,71,0.00,,,0.43,WeatherDisplay:10.37,2013-06-24 22:14:00,
2013-06-24 18:19:00,77.4,67.6,29.94,SSW,197,0.0,0.0,72,0.00,,,0.43,WeatherDisplay:10.37,2013-06-24 22:19:00,
2013-06-24 18:24:00,77.2,67.5,29.94,South,178,0.0,0.0,72,0.00,,,0.43,WeatherDisplay:10.37,2013-06-24 22:24:00,
2013-06-24 18:30:00,77.1,67.3,29.94,South,182,0.0,0.0,72,0.00,,,0.43,WeatherDisplay:10.37,2013-06-24 22:30:00,
2013-06-24 18:35:00,77.0,67.7,29.94,WSW,248,0.0,0.0,73,0.00,,,0.43,WeatherDisplay:10.37,2013-06-24 22:35:00,
2013-06-24 18:40:00,76.8,67.5,29.94,South,180,0.0,0.0,73,0.00,,,0.43,WeatherDisplay:10.37,2013-06-24 22:40:00,
2013-06-24 18:45:00,76.5,67.2,29.94,SSE,158,0.0,0.0,73,0.00,,,0.43,WeatherDisplay:10.37,2013-06-24 22:45:00,
2013-06-24 18:51:00,76.1,67.2,29.94,South,180,0.0,0.0,74,0.00,,,0.43,WeatherDisplay:10.37,2013-06-24 22:51:00,
2013-06-24 18:56:00,75.9,67.0,29.94,SSW,202,0.0,0.0,74,0.00,,,0.43,WeatherDisplay:10.37,2013-06-24 22:56:00,
2013-06-24 19:01:00,75.7,67.2,29.94,South,180,0.0,0.0,75,0.00,,,0.43,WeatherDisplay:10.37,2013-06-24 23:01:00,
2013-06-24 19:07:00,75.7,67.6,29.94,South,180,0.0,0.0,76,0.00,,,0.43,WeatherDisplay:10.37,2013-06-24 23:07:00,
2013-06-24 19:13:00,75.6,67.5,29.94,South,180,0.0,0.0,76,0.00,,,0.43,WeatherDisplay:10.37,2013-06-24 23:13:00,
2013-06-24 19:19:00,75.4,67.7,29.93,South,180,0.0,0.0,77,0.00,,,0.43,WeatherDisplay:10.37,2013-06-24 23:19:00,
2013-06-24 19:24:00,75.4,67.7,29.93,South,180,0.0,0.0,77,0.00,,,0.43,WeatherDisplay:10.37,2013-06-24 23:24:00,
2013-06-24 19:29:00,75.2,67.9,29.93,ENE,68,0.0,0.0,78,0.00,,,0.43,WeatherDisplay:10.37,2013-06-24 23:29:00,
2013-06-24 19:35:00,75.0,67.7,29.94,SE,135,0.0,0.0,78,0.00,,,0.43,WeatherDisplay:10.37,2013-06-24 23:35:00,
2013-06-24 19:40:00,75.0,68.1,29.95,SSE,158,0.0,0.0,79,0.00,,,0.43,WeatherDisplay:10.37,2013-06-24 23:40:00,
2013-06-24 19:45:00,75.0,67.7,29.95,SSW,202,0.0,0.0,78,0.00,,,0.43,WeatherDisplay:10.37,2013-06-24 23:45:00,
2013-06-24 19:50:00,74.8,67.5,29.95,ENE,68,0.0,0.0,78,0.00,,,0.43,WeatherDisplay:10.37,2013-06-24 23:50:00,
2013-06-24 19:56:00,74.7,67.3,29.96,SSE,158,0.0,0.0,78,0.00,,,0.43,WeatherDisplay:10.37,2013-06-24 23:56:00,
2013-06-24 20:01:00,74.5,67.2,29.96,SSE,158,0.0,0.0,78,0.00,,,0.43,WeatherDisplay:10.37,2013-06-25 00:01:00,
2013-06-24 20:06:00,74.5,67.2,29.95,South,180,0.0,0.0,78,0.00,,,0.43,WeatherDisplay:10.37,2013-06-25 00:06:00,
2013-06-24 20:12:00,74.3,67.0,29.96,South,180,0.0,0.0,78,0.00,,,0.43,WeatherDisplay:10.37,2013-06-25 00:12:00,
2013-06-24 20:17:00,74.1,66.8,29.96,SW,225,0.0,0.0,78,0.00,,,0.43,WeatherDisplay:10.37,2013-06-25 00:17:00,
2013-06-24 20:22:00,73.9,66.6,29.95,South,180,0.0,0.0,78,0.00,,,0.43,WeatherDisplay:10.37,2013-06-25 00:22:00,
2013-06-24 20:27:00,73.8,66.5,29.96,SW,225,0.0,0.0,78,0.00,,,0.43,WeatherDisplay:10.37,2013-06-25 00:27:00,
2013-06-24 20:32:00,73.6,66.3,29.97,SW,225,0.0,0.0,78,0.00,,,0.43,WeatherDisplay:10.37,2013-06-25 00:32:00,
2013-06-24 20:37:00,73.2,66.3,29.96,SW,225,0.0,0.0,79,0.00,,,0.43,WeatherDisplay:10.37,2013-06-25 00:37:00,
2013-06-24 20:42:00,73.2,66.3,29.95,West,270,0.0,0.0,79,0.00,,,0.43,WeatherDisplay:10.37,2013-06-25 00:42:00,
2013-06-24 20:47:00,73.0,66.1,29.96,SW,225,0.0,0.0,79,0.00,,,0.43,WeatherDisplay:10.37,2013-06-25 00:47:00,
2013-06-24 20:52:00,72.7,65.8,29.96,SW,225,0.0,0.0,79,0.00,,,0.43,WeatherDisplay:10.37,2013-06-25 00:52:00,
2013-06-24 20:57:00,72.7,65.8,29.97,SW,225,0.0,0.0,79,0.00,,,0.43,WeatherDisplay:10.37,2013-06-25 00:57:00,
2013-06-24 21:03:00,72.5,65.6,29.96,SW,225,0.0,0.0,79,0.00,,,0.43,WeatherDisplay:10.37,2013-06-25 01:03:00,
2013-06-24 21:08:00,72.3,65.4,29.96,SW,225,0.0,0.0,79,0.00,,,0.43,WeatherDisplay:10.37,2013-06-25 01:08:00,
2013-06-24 21:13:00,72.1,65.3,29.96,SW,225,0.0,0.0,79,0.00,,,0.43,WeatherDisplay:10.37,2013-06-25 01:13:00,
2013-06-24 21:18:00,72.0,64.7,29.97,SW,225,0.0,0.0,78,0.00,,,0.43,WeatherDisplay:10.37,2013-06-25 01:18:00,
2013-06-24 21:23:00,71.8,64.9,29.96,WSW,248,0.0,0.0,79,0.00,,,0.43,WeatherDisplay:10.37,2013-06-25 01:23:00,
2013-06-24 21:28:00,71.4,64.6,29.96,WSW,248,0.0,0.0,79,0.00,,,0.43,WeatherDisplay:10.37,2013-06-25 01:28:00,
2013-06-24 21:33:00,71.2,64.8,29.95,WSW,248,0.0,0.0,80,0.00,,,0.43,WeatherDisplay:10.37,2013-06-25 01:33:00,
2013-06-24 21:39:00,71.1,64.6,29.95,West,270,0.0,0.0,80,0.00,,,0.43,WeatherDisplay:10.37,2013-06-25 01:39:00,
2013-06-24 21:44:00,70.9,64.4,29.96,West,270,0.0,0.0,80,0.00,,,0.43,WeatherDisplay:10.37,2013-06-25 01:44:00,
2013-06-24 21:49:00,70.7,64.6,29.97,WSW,248,0.0,0.0,81,0.00,,,0.43,WeatherDisplay:10.37,2013-06-25 01:49:00,
2013-06-24 21:54:00,70.5,64.4,29.96,WSW,248,0.0,0.0,81,0.00,,,0.43,WeatherDisplay:10.37,2013-06-25 01:54:00,
2013-06-24 21:59:00,70.3,64.6,29.96,WSW,248,0.0,0.0,82,0.00,,,0.43,WeatherDisplay:10.37,2013-06-25 01:59:00,
2013-06-24 22:04:00,70.2,64.4,29.97,WSW,248,0.0,0.0,82,0.00,,,0.43,WeatherDisplay:10.37,2013-06-25 02:04:00,
2013-06-24 22:09:00,70.0,64.2,29.97,WSW,248,0.0,0.0,82,0.00,,,0.43,WeatherDisplay:10.37,2013-06-25 02:09:00,
2013-06-24 22:14:00,70.0,64.2,29.96,WSW,248,0.0,0.0,82,0.00,,,0.43,WeatherDisplay:10.37,2013-06-25 02:14:00,
2013-06-24 22:19:00,69.8,64.1,29.97,WSW,248,0.0,0.0,82,0.00,,,0.43,WeatherDisplay:10.37,2013-06-25 02:19:00,
2013-06-24 22:24:00,69.6,64.2,29.97,WSW,248,0.0,0.0,83,0.00,,,0.43,WeatherDisplay:10.37,2013-06-25 02:24:00,
2013-06-24 22:29:00,69.6,64.2,29.97,WSW,248,0.0,0.0,83,0.00,,,0.43,WeatherDisplay:10.37,2013-06-25 02:29:00,
2013-06-24 22:34:00,69.4,64.4,29.97,SW,225,0.0,0.0,84,0.00,,,0.43,WeatherDisplay:10.37,2013-06-25 02:34:00,
2013-06-24 22:39:00,69.3,64.2,29.98,WSW,248,0.0,0.0,84,0.00,,,0.43,WeatherDisplay:10.37,2013-06-25 02:39:00,
2013-06-24 22:44:00,69.1,64.0,29.98,WSW,248,0.0,0.0,84,0.00,,,0.43,WeatherDisplay:10.37,2013-06-25 02:44:00,
2013-06-24 22:49:00,68.9,64.2,29.98,WSW,248,0.0,0.0,85,0.00,,,0.43,WeatherDisplay:10.37,2013-06-25 02:49:00,
2013-06-24 22:54:00,68.7,64.0,29.98,WSW,248,0.0,0.0,85,0.00,,,0.43,WeatherDisplay:10.37,2013-06-25 02:54:00,
2013-06-24 23:00:00,68.7,64.0,29.98,WSW,248,0.0,0.0,85,0.00,,,0.43,WeatherDisplay:10.37,2013-06-25 03:00:00,
2013-06-24 23:05:00,68.5,63.8,29.98,WSW,248,0.0,0.0,85,0.00,,,0.43,WeatherDisplay:10.37,2013-06-25 03:05:00,
2013-06-24 23:10:00,68.5,64.2,29.98,WSW,248,0.0,0.0,86,0.00,,,0.43,WeatherDisplay:10.37,2013-06-25 03:10:00,
2013-06-24 23:17:00,68.5,63.8,29.98,WSW,248,0.0,0.0,85,0.00,,,0.43,WeatherDisplay:10.37,2013-06-25 03:17:00,
2013-06-24 23:22:00,68.5,63.8,29.99,WSW,248,0.0,0.0,85,0.00,,,0.43,WeatherDisplay:10.37,2013-06-25 03:22:00,
2013-06-24 23:27:00,68.7,64.0,29.99,WSW,248,0.0,0.0,85,0.00,,,0.43,WeatherDisplay:10.37,2013-06-25 03:27:00,
2013-06-24 23:32:00,68.7,64.0,29.98,WSW,248,0.0,0.0,85,0.00,,,0.43,WeatherDisplay:10.37,2013-06-25 03:32:00,
2013-06-24 23:38:00,68.7,64.0,29.98,WSW,248,0.0,0.0,85,0.00,,,0.43,WeatherDisplay:10.37,2013-06-25 03:38:00,
2013-06-24 23:43:00,68.7,64.0,29.98,WSW,248,0.0,0.0,85,0.00,,,0.43,WeatherDisplay:10.37,2013-06-25 03:43:00,
2013-06-24 23:48:00,68.7,64.0,29.98,WSW,248,0.0,0.0,85,0.00,,,0.43,WeatherDisplay:10.37,2013-06-25 03:48:00,
2013-06-24 23:53:00,68.7,64.0,29.98,WSW,248,0.0,0.0,85,0.00,,,0.43,WeatherDisplay:10.37,2013-06-25 03:53:00,
2013-06-24 23:59:00,68.5,63.8,29.98,WSW,247,0.0,0.0,85,0.00,RA,,0.00,WeatherDisplay:10.37,2013-06-25 03:59:00,